Regional Weather Roundup
Issued by NWS

Home | Current Version | Previous Version | Graphics & Text | Print | Product List | Glossary On
Versions: 1 2 3 4 5 6 7 8 9 10 11 12 13 14 15 16 17 18 19 20 21 22 23 24 25 26 27 28 29 30 31 32 33 34 35 36 37 38 39 40 41 42 43 44 45 46 47 48 49 50
000
ASUS43 KLSX 310957
RWRMO

WEATHER SUMMARY FOR MISSOURI
NATIONAL WEATHER SERVICE SPRINGFIELD MO
500 AM CDT WED AUG 31 2016

NOTE: "FAIR" INDICATES FEW OR NO CLOUDS BELOW 12,000 FEET WITH NO
       SIGNIFICANT WEATHER AND/OR OBSTRUCTIONS TO VISIBILITY.
       CURRENT SKY AND/OR WEATHER CONDITIONS ARE NOT AVAILABLE FOR
       CHILLICOTHE AND FARMINGTON.

MOZ001>031-035>038-043-044-053-054-311100-
...NORTHERN AND WESTERN MISSOURI...

CITY           SKY/WX    TMP DP  RH WIND       PRES   REMARKS
KANSAS CTY INT LGT RAIN  69  67  93 CALM      30.11F
LEE`S SUMMIT   LGT RAIN  73  72  96 NW3       30.12S
ST JOSEPH      LGT RAIN  72  70  93 CALM      30.11F
CHILLICOTHE      N/A     74  71  91 CALM      30.11F

$$
MOZ066>068-077>081-088>096-101>105-311100-
...SOUTHWEST MISSOURI...

CITY           SKY/WX    TMP DP  RH WIND       PRES   REMARKS
SPRINGFIELD    CLOUDY    73  68  84 N3        30.09F
JOPLIN         CLOUDY    72  70  93 NE7       30.09S

$$
MOZ032>034-039>042-045>050-055>058-069>072-311100-
...CENTRAL MISSOURI...

CITY           SKY/WX    TMP DP  RH WIND       PRES   REMARKS
COLUMBIA       NOT AVBL
JEFFERSON CITY MOCLDY    71  70  96 CALM      30.08S
ROLLA          FOG       67  66  97 CALM      30.08S VSB 1
SEDALIA        MOCLDY    72  70  93 W5        30.11S
OSAGE BEACH    LGT RAIN  72  72 100 CALM      30.10S FOG

$$
MOZ051-052-059>065-311100-
...EAST CENTRAL MISSOURI...

CITY           SKY/WX    TMP DP  RH WIND       PRES   REMARKS
ST LOUIS INTL  PTCLDY    72  69  90 CALM      30.06S

$$
MOZ072>076-082>087-097>100-106>115-311100-
...SOUTH CENTRAL AND SOUTHEAST MISSOURI...

CITY           SKY/WX    TMP DP  RH WIND       PRES   REMARKS
CAPE GIRARDEAU NOT AVBL
POPLAR BLUFF   CLEAR     72  69  90 N5        30.03S
WEST PLAINS    CLEAR     69  66  90 N3        30.10S

$$



USA.gov is the U.S. government's official web portal to all federal, state and local government web resources and services.